Szeged, Hungary

11:09 PM CET on February 25, 2017 (GMT +0100)
Szeged

Weather History for LHUD - February, 2013

Change the Weather History Date:

Friday, February 15, 2013

  Actual Average (LRAR) Record (LRAR)
Temperature  
Mean Temperature 40 °F -  
Max Temperature 44 °F 46 °F 62 °F (1998)
Min Temperature 37 °F 31 °F 3 °F (2003)
Degree Days  
Heating Degree Days 24    
Moisture  
Dew Point 39 °F    
Average Humidity 95    
Maximum Humidity 100    
Minimum Humidity 81    
Precipitation  
Precipitation 0.00 in 0.04 in - ()
Sea Level Pressure  
Sea Level Pressure 30.06 in    
Wind  
Wind Speed 2 mph ()    
Max Wind Speed 6 mph    
Max Gust Speed -    
Visibility 2.9 miles    
Events Fog , Rain    
Averages and records for this station are not official NWS values.
T = Trace of Precipitation, MM = Missing Value Source: Averaged Metar Reports

Daily Weather History Graph

Daily Weather History Graph

Search for Another Location

Airport or City:

Trip Planner

Search our weather history database for the weather conditions in past years. The results will help you decide how hot, cold, wet, or windy it might be!

Date:

Astronomy

Feb. 15, 2013 Rise Set
Actual Time 6:42 AM CET 5:05 PM CET
Civil Twilight 6:11 AM CET 5:36 PM CET
Nautical Twilight 5:36 AM CET 6:11 PM CET
Astronomical Twilight 5:02 AM CET 6:46 PM CET
Moon 8:46 AM CET (2/15) 11:12 PM CET (2/15)
Length of Visible Light 11h 24m
Length of Day
10h 22m
Waxing Crescent, 28% of the Moon is Illuminated
Feb 15
Waxing Crescent
Feb 17
First Quarter
Feb 25
Full
Mar 4
Last Quarter
Mar 11
New

Hourly Weather History & Observations

Time (CET) Temp. Windchill Dew Point Humidity Pressure Visibility Wind Dir Wind Speed Gust Speed Precip Events Conditions
12:45 AM 39.2 °F - 39.2 °F 100% 30.06 in 0.1 mi NE 2.3 mph - N/A Fog Fog
1:00 AM 39 °F - 39 °F 100% 30.09 in 0 mi NE 2.2 mph - - Fog Partial Fog
1:45 AM 39.2 °F - 39.2 °F 100% 30.06 in 0.1 mi North 2.3 mph - N/A Fog Fog
2:45 AM 39.2 °F - 39.2 °F 100% 30.06 in 0.1 mi NNE 2.3 mph - N/A Fog Fog
3:45 AM 37.4 °F - 37.4 °F 100% 30.04 in 0.1 mi Calm Calm - N/A Fog Fog
4:45 AM 37.4 °F - 37.4 °F 100% 30.04 in 0.1 mi Calm Calm - N/A Fog Fog
5:15 AM 37.4 °F - 37.4 °F 100% 30.04 in 0.1 mi Calm Calm - N/A Fog Fog
5:45 AM 37.4 °F - 37.4 °F 100% 30.04 in 0.2 mi Calm Calm - N/A Fog Fog
6:15 AM 37.4 °F - 37.4 °F 100% 30.04 in 0.2 mi NNW 2.3 mph - N/A Fog Fog
6:45 AM 37.4 °F 34.9 °F 37.4 °F 100% 30.04 in 0.2 mi NW 3.5 mph - N/A Fog Fog
7:00 AM 37 °F - 37 °F 100% 30.05 in 0 mi NW 2.2 mph - - Fog Partial Fog
7:15 AM 37.4 °F - 37.4 °F 100% 30.04 in 0.2 mi WNW 2.3 mph - N/A Fog Fog
7:45 AM 37.4 °F - 37.4 °F 100% 30.06 in 0.2 mi NNW 2.3 mph - N/A Fog Fog
8:15 AM 37.4 °F - 37.4 °F 100% 30.06 in 0.2 mi WNW 2.3 mph - N/A Fog Fog
8:45 AM 37.4 °F 34.9 °F 37.4 °F 100% 30.06 in 0.2 mi NW 3.5 mph - N/A Fog Fog
9:15 AM 39.2 °F - 37.4 °F 93% 30.06 in 0.3 mi WNW 2.3 mph - N/A Fog Fog
9:45 AM 39.2 °F 37.0 °F 39.2 °F 100% 30.06 in 1.1 mi NW 3.5 mph - N/A   Overcast
10:13 AM 39.2 °F 37.0 °F 39.2 °F 100% 30.09 in 0.5 mi NW 3.5 mph - N/A Rain Light Rain
10:15 AM 39.2 °F 37.0 °F 39.2 °F 100% 30.06 in 0.6 mi NW 3.5 mph - N/A Fog Patches of Fog
10:45 AM 39.2 °F 35.9 °F 39.2 °F 100% 30.06 in 1.9 mi NNW 4.6 mph - N/A   Overcast
11:15 AM 41.0 °F 38.0 °F 41.0 °F 100% 30.06 in 2.8 mi NW 4.6 mph - N/A   Mostly Cloudy
11:45 AM 41.0 °F 39.0 °F 41.0 °F 100% 30.06 in 3.1 mi NNW 3.5 mph - N/A   Mostly Cloudy
12:15 PM 42.8 °F - 42.8 °F 100% 30.06 in 4.3 mi NNW 2.3 mph - N/A   Overcast
12:45 PM 42.8 °F - 41.0 °F 93% 30.06 in 5.0 mi WSW 1.2 mph - N/A   Overcast
1:00 PM 43 °F - 42 °F 93% 30.07 in 5 mi WSW 2.2 mph - -   Partly Cloudy
1:15 PM 42.8 °F - 41.0 °F 93% 30.06 in 5.6 mi North 2.3 mph - N/A   Overcast
1:45 PM 42.8 °F - 41.0 °F 93% 30.06 in 6.2 mi NE 2.3 mph - N/A   Overcast
2:15 PM 44.6 °F - 41.0 °F 87% 30.06 in 6.2 mi Calm Calm - N/A   Mostly Cloudy
2:45 PM 44.6 °F - 39.2 °F 81% 30.06 in 6.2 mi WNW 1.2 mph - N/A   Mostly Cloudy
3:15 PM 44.6 °F - 39.2 °F 81% 30.06 in 6.2 mi West 1.2 mph - N/A   Mostly Cloudy
3:45 PM 44.6 °F - 39.2 °F 81% 30.06 in 6.2 mi NW 2.3 mph - N/A   Mostly Cloudy
4:15 PM 44.6 °F - 39.2 °F 81% 30.06 in 5.0 mi NW 1.2 mph - N/A   Mostly Cloudy
4:45 PM 44.6 °F - 41.0 °F 87% 30.06 in 5.0 mi WSW 1.2 mph - N/A   Overcast
5:15 PM 44.6 °F - 41.0 °F 87% 30.06 in 3.7 mi WNW 2.3 mph - N/A   Overcast
5:45 PM 42.8 °F - 41.0 °F 93% 30.06 in 5.0 mi WNW 2.3 mph - N/A Rain Light Rain
6:15 PM 42.8 °F 40.1 °F 41.0 °F 93% 30.09 in 5.0 mi NW 4.6 mph - N/A Rain Light Rain
6:45 PM 42.8 °F 41.1 °F 41.0 °F 93% 30.09 in 5.6 mi NW 3.5 mph - N/A Rain Light Rain
7:00 PM 43 °F - 41 °F 89% 30.09 in 6 mi NW 4.5 mph - - Rain Light Rain
7:15 PM 42.8 °F 41.1 °F 41.0 °F 93% 30.09 in 5.6 mi WNW 3.5 mph - N/A Rain Light Rain
7:45 PM 41.0 °F - 39.2 °F 93% 30.09 in 6.2 mi WNW 2.3 mph - N/A Rain Light Rain
8:15 PM 41.0 °F 37.1 °F 39.2 °F 93% 30.09 in 5.0 mi WNW 5.8 mph - N/A   Scattered Clouds
8:45 PM 39.2 °F 35.0 °F 39.2 °F 100% 30.09 in 5.0 mi West 5.8 mph - N/A   Scattered Clouds
9:45 PM 39.2 °F 37.0 °F 37.4 °F 93% 30.09 in 3.7 mi WNW 3.5 mph - N/A   Mostly Cloudy
10:45 PM 39.2 °F - 37.4 °F 93% 30.09 in - NW 2.3 mph - N/A   Overcast
11:45 PM 39.2 °F - 39.2 °F 100% 30.09 in - NNW 2.3 mph - N/A   Overcast